[[{"header":{"parameterUnit":"m.s-1","parameterCategory":1,"la1":30.2991,"la2":30.254,"lo1":-89.0895,"lo2":-89.0444,"dy":0.0017,"dx":0.0017,"nx":28,"ny":28,"refTime":"2025-08-09T03:00:00:Z","depth":0,"parameterNumber":2,"parameterNumberName":"U-component_of_WINDS"},"data":[0,0,0,0,0,0,0,0,0,0,0,0,0,0,0,0,0,0,0,0,0,0,0,0,0,0,0,0,0,0,0,0,0,0,0,0,0,0,0,0,0,0,0,0,0,0,0,0,0,0,0,0,0,0,0,0,0,0,-4.1686,-4.1685,0,-4.1664,-4.1663,-4.1663,-4.1529,-4.1526,-4.1523,-4.152,-4.1501,-4.1504,-4.1506,0,0,0,0,0,0,0,0,0,0,0,0,0,-4.1618,-4.162,-4.1686,-4.1685,-4.1685,-4.1664,-4.1663,-4.1663,-4.153,-4.1526,-4.1522,-4.1518,-4.15,-4.1503,-4.1507,0,0,0,0,0,0,0,0,0,0,0,0,0,-4.1627,-4.162,-4.1686,-4.1616,-4.1609,-4.1664,-4.1663,-4.1663,-4.1531,-4.1526,-4.1521,-4.1516,-4.1499,-4.1503,-4.1507,-4.1628,0,0,-4.1519,-4.152,0,0,0,0,0,0,0,0,-4.1626,-4.1629,-4.1626,-4.1621,-4.1614,-4.1594,-4.1632,-4.1651,-4.1532,-4.1561,-4.1519,-4.1514,-4.1536,-4.1537,-4.1543,-4.1627,-4.1626,-4.1519,-4.1521,-4.1523,-4.1524,0,0,0,0,0,0,0,-4.1626,-4.163,-4.1677,-4.1627,-4.1619,-4.1587,-4.1583,-4.1635,-4.1576,-4.1558,-4.1548,-4.1547,-4.1532,-4.154,-4.1542,-4.1626,-4.1519,-4.1522,-4.1525,-4.1526,-4.1811,-4.1816,0,0,0,0,0,0,-4.1635,-4.163,-4.1678,-4.1676,-4.1608,-4.1593,-4.1588,-4.1605,-4.1575,-4.1566,-4.1551,-4.1541,-4.1536,-4.1538,-4.1541,-4.1682,-4.1523,-4.1526,-4.1529,-4.1805,-4.1812,-4.1818,0,0,0,0,0,0,-4.1634,-4.164,-4.1679,-4.1651,-4.1653,-4.1599,-4.162,-4.1607,-4.1615,-4.157,-4.1559,-4.157,-4.1532,-4.1536,-4.1608,-4.168,-4.1528,-4.1532,-4.1799,-4.1807,-4.1815,-4.1966,0,0,0,0,0,0,-4.1632,-4.164,-4.1684,-4.1652,-4.1655,-4.1744,-4.1624,-4.1611,-4.1622,-4.1608,-4.1585,-4.1577,-4.1529,-4.1603,-4.1611,-4.1682,-4.1535,-4.1793,-4.1803,-4.1812,-4.1954,-4.1978,-4.1998,0,0,0,0,0,-4.163,-4.1728,-4.1687,-4.1694,-4.1709,-4.1749,-4.175,-4.1692,-4.1628,-4.1673,-4.1644,-4.1577,-4.167,-4.1611,-4.162,-4.1693,-4.1788,-4.18,-4.1811,-4.1944,-4.1973,-4.1997,0,0,0,0,0,0,-4.1771,-4.1723,-4.1677,-4.1767,-4.1763,-4.1726,-4.178,-4.1724,-4.1739,-4.1726,-4.1654,-4.165,-4.1734,-4.172,-4.1655,-4.181,-4.1718,-4.1732,-4.1816,-4.1843,-4.1864,-4.1866,-4.1538,0,0,0,0,0,-4.1812,-4.1847,-4.1804,-4.1888,-4.1888,-4.1835,-4.185,-4.1806,-4.1799,-4.1797,-4.1773,-4.1771,-4.18,-4.182,-4.1844,-4.1951,-4.1946,-4.2006,-4.2028,-4.2046,-4.206,-4.2118,-4.2145,-4.1857,-4.1856,-4.1856,0,0,-4.1898,-4.1876,-4.1903,-4.1915,-4.1907,-4.1947,-4.1834,-4.1881,-4.191,-4.1804,-4.1871,-4.1854,-4.1847,-4.1938,-4.1977,-4.1929,-4.2139,-4.2062,-4.2077,-4.208,-4.2133,-4.2161,-4.2185,-4.1865,-4.1863,-4.1862,0,0,-4.2076,-4.2062,-4.2131,-4.2125,-4.2114,-4.2078,-4.2095,-4.2067,-4.2052,-4.2117,-4.204,-4.2075,-4.2125,-4.2124,-4.213,-4.231,-4.225,-4.232,-4.2435,-4.2493,-4.2516,-4.2535,-4.2602,-4.2626,-4.2333,-4.2333,-4.2334,0,-4.2184,-4.224,-4.2174,-4.2226,-4.2235,-4.2141,-4.2212,-4.221,-4.2208,-4.2217,-4.2163,-4.2226,-4.2215,-4.2305,-4.2349,-4.2356,-4.2376,-4.2322,-4.2517,-4.2537,-4.2554,-4.2617,-4.2642,-4.2342,-4.2341,-4.234,-4.2339,0,-4.2375,-4.2415,-4.2473,-4.2473,-4.2488,-4.255,-4.2495,-4.2519,-4.2474,-4.2445,-4.2515,-4.2498,-4.2518,-4.2535,-4.2492,-4.2621,-4.2592,-4.253,-4.2435,-4.2592,-4.2649,-4.2672,-4.2354,-4.2351,-4.2349,-4.2347,0,0,-4.264,-4.2604,-4.2626,-4.2626,-4.2607,-4.2638,-4.2696,-4.2715,-4.2738,-4.274,-4.2789,-4.2835,-4.2777,-4.2784,-4.274,-4.2791,-4.2937,-4.2721,-4.272,-4.2764,-4.3081,-4.313,-4.3158,-4.2897,-4.2901,-4.2905,-4.3082,0,-4.2811,-4.2907,-4.2851,-4.2957,-4.2994,-4.2906,-4.2958,-4.2953,-4.2929,-4.2958,-4.2931,-4.2966,-4.2885,-4.289,-4.2936,-4.291,-4.3,-4.2896,-4.2944,-4.2947,-4.295,-4.3188,-4.3239,-4.3408,-4.3104,-4.3108,-4.3111,0,-4.3024,-4.3035,-4.3144,-4.3121,-4.3134,-4.3181,-4.3195,-4.3224,-4.3218,-4.3197,-4.3206,-4.315,-4.3208,-4.3115,-4.3196,-4.3126,-4.3143,-4.3134,-4.3139,-4.3142,-4.3039,-4.32,-4.346,-4.3486,-4.3145,-4.3142,-4.314,0,-4.3208,-4.3251,-4.3322,-4.3324,-4.3298,-4.3334,-4.3325,-4.3314,-4.333,-4.3342,-4.3352,-4.3372,-4.3384,-4.3401,-4.3353,-4.3289,-4.3442,-4.3344,-4.3428,-4.3429,-4.3464,-4.3463,-4.3733,-4.3473,-4.3473,-4.3472,-4.3472,0,-4.3406,-4.3477,-4.3405,-4.3449,-4.3527,-4.3463,-4.3542,-4.3524,-4.3516,-4.3556,-4.3481,-4.3522,-4.3455,-4.349,-4.3453,-4.3527,-4.3532,-4.3518,-4.3508,-4.3526,-4.3528,-4.3536,-4.3524,-4.3479,-4.3477,-4.3476,-4.3475,0,-4.3626,-4.358,-4.3652,-4.3622,-4.3616,-4.3675,-4.365,-4.3691,-4.3661,-4.3714,-4.3723,-4.3677,-4.3714,-4.3668,-4.37,-4.3676,-4.3777,-4.3748,-4.3779,-4.3771,-4.3859,-4.3852,-4.4144,-4.4181,-4.3897,-4.3899,-4.3902,0,-4.3755,-4.3808,-4.3784,-4.3805,-4.3801,-4.3836,-4.3852,-4.3791,-4.3811,-4.381,-4.3852,-4.3882,-4.3903,-4.3967,-4.3938,-4.3964,-4.3936,-4.4037,-4.3939,-4.3957,-4.394,-4.3938,-4.3944,-4.4057,-4.4061,-4.4063,-4.4066,0,-4.3992,-4.3967,-4.3992,-4.401,-4.4031,-4.4042,-4.4048,-4.407,-4.4007,-4.4034,-4.407,-4.4087,-4.4121,-4.4153,-4.4171,-4.4163,-4.4106,-4.4096,-4.4118,-4.4137,-4.4154,-4.4148,-4.3835,-4.409,-4.4088,-4.4086,-4.4085,-4.4084,-4.4171,-4.4215,-4.4205,-4.4236,-4.4234,-4.4242,-4.428,-4.4255,-4.4284,-4.4306,-4.4269,-4.4316,-4.4312,-4.433,-4.4329,-4.4367,-4.4323,-4.4353,-4.4361,-4.437,-4.4385,-4.4147,-4.4369,-4.4369,-4.4368,-4.4367,-4.4367,0,-4.4405,-4.4395,-4.4424,-4.4435,-4.446,-4.4402,-4.4407,-4.4432,-4.4474,-4.4474,-4.4496,-4.454,-4.4571,-4.4546,-4.4572,-4.4607,-4.4582,-4.4617,-4.4614,-4.4614,-4.442,-4.44,-4.4637,-4.4637,-4.4637,-4.4637,-4.4637,-4.4637,-4.453,-4.4601,-4.4576,-4.4647,-4.4636,-4.4681,-4.4689,-4.4697,-4.4697,-4.4748,-4.4774,-4.4756,-4.4747,-4.4773,-4.48,-4.4792,-4.4806,-4.4851,-4.4834,-4.4654,-4.4627,-4.4602,-4.4583,-4.4854,-4.4855,-4.5025,-4.5026,-4.5028]},{"header":{"parameterUnit":"m.s-1","parameterCategory":1,"la1":30.2991,"la2":30.254,"lo1":-89.0895,"lo2":-89.0444,"dy":0.0017,"dx":0.0017,"nx":28,"ny":28,"refTime":"2025-08-09T03:00:00:Z","depth":0,"parameterNumber":3,"parameterNumberName":"V-component_of_WINDS"},"data":[0,0,0,0,0,0,0,0,0,0,0,0,0,0,0,0,0,0,0,0,0,0,0,0,0,0,0,0,0,0,0,0,0,0,0,0,0,0,0,0,0,0,0,0,0,0,0,0,0,0,0,0,0,0,0,0,0,0,-0.1141,-0.1141,0,-0.1118,-0.1117,-0.1117,-0.1071,-0.107,-0.1069,-0.1068,-0.1046,-0.1046,-0.1047,0,0,0,0,0,0,0,0,0,0,0,0,0,-0.1148,-0.1148,-0.1141,-0.1141,-0.1141,-0.1118,-0.1117,-0.1117,-0.1071,-0.107,-0.1069,-0.1068,-0.1046,-0.1046,-0.1047,0,0,0,0,0,0,0,0,0,0,0,0,0,-0.1137,-0.1148,-0.1141,-0.1115,-0.1112,-0.1118,-0.1117,-0.1117,-0.1071,-0.107,-0.1068,-0.1067,-0.1046,-0.1046,-0.1047,-0.1077,0,0,-0.1048,-0.1048,0,0,0,0,0,0,0,0,-0.1137,-0.1137,-0.1119,-0.1117,-0.1114,-0.1096,-0.1111,-0.1103,-0.1072,-0.1087,-0.1068,-0.1066,-0.1064,-0.1063,-0.1061,-0.1076,-0.1075,-0.1048,-0.1048,-0.1048,-0.1048,0,0,0,0,0,0,0,-0.1138,-0.1137,-0.1132,-0.1119,-0.1116,-0.1105,-0.1101,-0.111,-0.1083,-0.1085,-0.1082,-0.108,-0.1062,-0.1061,-0.106,-0.1074,-0.1048,-0.1048,-0.1048,-0.1049,-0.1113,-0.1114,0,0,0,0,0,0,-0.1143,-0.1138,-0.1133,-0.1131,-0.1122,-0.1106,-0.1102,-0.1103,-0.1083,-0.1079,-0.1081,-0.1078,-0.1061,-0.106,-0.106,-0.1094,-0.1048,-0.1049,-0.1049,-0.1111,-0.1113,-0.1114,0,0,0,0,0,0,-0.1143,-0.1143,-0.1134,-0.1134,-0.1132,-0.1107,-0.1108,-0.1103,-0.1102,-0.108,-0.1075,-0.1085,-0.106,-0.1059,-0.1073,-0.1093,-0.1049,-0.1049,-0.1109,-0.1112,-0.1114,-0.1164,0,0,0,0,0,0,-0.1143,-0.1143,-0.1154,-0.1134,-0.1132,-0.1147,-0.1109,-0.1104,-0.1103,-0.1098,-0.1082,-0.1078,-0.1059,-0.1072,-0.1073,-0.1093,-0.105,-0.1107,-0.111,-0.1113,-0.116,-0.1167,-0.1173,0,0,0,0,0,-0.1144,-0.1169,-0.1155,-0.1154,-0.1145,-0.1148,-0.1147,-0.1124,-0.1104,-0.1115,-0.1101,-0.1078,-0.109,-0.1074,-0.1075,-0.1095,-0.1106,-0.111,-0.1113,-0.1157,-0.1166,-0.1173,0,0,0,0,0,0,-0.1193,-0.1166,-0.115,-0.1169,-0.1161,-0.114,-0.1154,-0.1133,-0.1131,-0.1127,-0.1099,-0.1096,-0.1114,-0.1105,-0.1088,-0.1123,-0.1094,-0.1098,-0.1128,-0.1136,-0.1143,-0.1146,-0.105,0,0,0,0,0,-0.1205,-0.121,-0.1186,-0.1206,-0.1203,-0.1179,-0.118,-0.1162,-0.1153,-0.115,-0.1136,-0.1129,-0.113,-0.1132,-0.1133,-0.1158,-0.1154,-0.1172,-0.1178,-0.1184,-0.1188,-0.1202,-0.121,-0.1125,-0.1125,-0.1125,0,0,-0.1233,-0.1219,-0.1223,-0.1216,-0.1207,-0.1213,-0.1177,-0.1184,-0.1189,-0.1151,-0.1163,-0.1153,-0.1143,-0.1163,-0.117,-0.1156,-0.121,-0.1188,-0.1193,-0.1194,-0.1206,-0.1214,-0.1221,-0.1127,-0.1127,-0.1127,0,0,-0.1286,-0.1275,-0.1291,-0.1283,-0.127,-0.1254,-0.1258,-0.1239,-0.1231,-0.1243,-0.1215,-0.1219,-0.1223,-0.1217,-0.1215,-0.1264,-0.1244,-0.1265,-0.1301,-0.1314,-0.1321,-0.1327,-0.1346,-0.1353,-0.1268,-0.1269,-0.1269,0,-0.1322,-0.1329,-0.1301,-0.1311,-0.1309,-0.1274,-0.129,-0.1284,-0.1272,-0.1272,-0.1255,-0.1259,-0.1249,-0.1268,-0.128,-0.1278,-0.1283,-0.1268,-0.1322,-0.1327,-0.1333,-0.1351,-0.1358,-0.1271,-0.1271,-0.1271,-0.1271,0,-0.1374,-0.138,-0.1394,-0.1383,-0.1382,-0.1395,-0.137,-0.1373,-0.1355,-0.1341,-0.1353,-0.134,-0.1338,-0.134,-0.1323,-0.1356,-0.1348,-0.1327,-0.1298,-0.1344,-0.1361,-0.1367,-0.1275,-0.1274,-0.1274,-0.1273,0,0,-0.146,-0.1433,-0.1439,-0.1434,-0.1417,-0.1421,-0.1432,-0.1428,-0.1432,-0.1424,-0.1434,-0.1437,-0.1418,-0.1415,-0.1397,-0.1408,-0.145,-0.1386,-0.1385,-0.14,-0.1488,-0.1506,-0.1514,-0.1435,-0.1437,-0.1438,-0.1489,0,-0.1511,-0.1529,-0.1504,-0.1527,-0.1532,-0.1498,-0.1508,-0.1499,-0.1485,-0.1488,-0.1473,-0.1477,-0.145,-0.1448,-0.1458,-0.1443,-0.1468,-0.1439,-0.1446,-0.1447,-0.1452,-0.1523,-0.1541,-0.1591,-0.1496,-0.1497,-0.1497,0,-0.1574,-0.1569,-0.1593,-0.1574,-0.1575,-0.1585,-0.158,-0.1582,-0.1572,-0.1561,-0.1557,-0.1535,-0.1545,-0.1516,-0.153,-0.1511,-0.1512,-0.1505,-0.1507,-0.1508,-0.1477,-0.1529,-0.1606,-0.1615,-0.1507,-0.1506,-0.1506,0,-0.1636,-0.1636,-0.165,-0.1646,-0.1625,-0.1632,-0.1623,-0.1611,-0.1611,-0.1606,-0.1606,-0.1603,-0.1602,-0.16,-0.1578,-0.1559,-0.1596,-0.1564,-0.1589,-0.159,-0.1601,-0.1601,-0.1682,-0.1598,-0.1598,-0.1597,-0.1597,0,-0.1697,-0.1714,-0.1678,-0.1687,-0.1705,-0.1675,-0.1694,-0.1682,-0.1671,-0.1677,-0.1647,-0.1654,-0.1623,-0.1627,-0.1609,-0.1625,-0.1624,-0.1617,-0.1613,-0.1621,-0.1623,-0.1624,-0.162,-0.1599,-0.1599,-0.1599,-0.1598,0,-0.1772,-0.1748,-0.1762,-0.1739,-0.1734,-0.1748,-0.1729,-0.1737,-0.1721,-0.173,-0.173,-0.1705,-0.1708,-0.1685,-0.1684,-0.1672,-0.1697,-0.1685,-0.1701,-0.1698,-0.1725,-0.1724,-0.1812,-0.1823,-0.1729,-0.173,-0.1731,0,-0.1814,-0.1825,-0.1804,-0.1806,-0.1799,-0.1802,-0.1801,-0.1773,-0.1773,-0.1761,-0.1771,-0.1771,-0.177,-0.1777,-0.1759,-0.1758,-0.1748,-0.1778,-0.1748,-0.1756,-0.1751,-0.1751,-0.1753,-0.1786,-0.1787,-0.1788,-0.1789,0,-0.1891,-0.1879,-0.1878,-0.1874,-0.1874,-0.1869,-0.1863,-0.1866,-0.1835,-0.1837,-0.184,-0.1839,-0.1837,-0.1838,-0.1834,-0.1825,-0.1803,-0.1798,-0.1804,-0.1815,-0.1824,-0.1821,-0.1721,-0.1797,-0.1796,-0.1796,-0.1795,-0.1795,-0.1952,-0.1961,-0.1948,-0.1949,-0.194,-0.1935,-0.1941,-0.1925,-0.1926,-0.1923,-0.1905,-0.1911,-0.1899,-0.1891,-0.1884,-0.1889,-0.1874,-0.1882,-0.1885,-0.1888,-0.1894,-0.1821,-0.1887,-0.1887,-0.1887,-0.1887,-0.1887,0,-0.203,-0.2019,-0.202,-0.2012,-0.2012,-0.1989,-0.198,-0.1983,-0.1988,-0.1978,-0.1978,-0.1981,-0.1981,-0.1963,-0.1962,-0.1969,-0.1959,-0.197,-0.197,-0.1969,-0.1906,-0.1902,-0.1978,-0.1978,-0.1978,-0.1978,-0.1978,-0.1978,-0.2071,-0.2086,-0.2071,-0.2082,-0.207,-0.2075,-0.2073,-0.2068,-0.206,-0.2065,-0.2065,-0.2052,-0.204,-0.2037,-0.2037,-0.2031,-0.2033,-0.2049,-0.204,-0.1982,-0.1973,-0.1965,-0.1961,-0.2049,-0.2049,-0.2103,-0.2103,-0.2104]}]]